Location: Observatoire
(46.1952°N, 5.3391°E)
Time: 23:24:41
(UTC+01:00)

Courier 1B Rocket - Pass Details

Date: 23 February 2026
Orbit: 920 x 1201 km, 28.2° (Epoch: 11 March)

Event Time Altitude Azimuth Distance (km) Brightness Sun altitude
Rises 17:31:30 0° 214° (SW) 3,592 9.0 6.5°
Reaches altitude 10° 17:36:44 10° 178° (S) 2,611 7.5 5.7°
Maximum altitude 17:38:02 11° 166° (SSE) 2,558 7.3 5.5°
Drops below altitude 10° 17:39:20 10° 154° (SSE) 2,603 7.2 5.3°
Sets 17:44:30 0° 117° (ESE) 3,548 7.5 4.4°
